Погода в Сукпае

Россия / Хабаровский край     47°59′57″N   136°47′14″E
темп.,
°C
ветер,
м/с
пор.,
м/с
влажн.,
%
обл.,
%
осадки,
мм/ч
давл.,
гПа
погр.,
м
10 мая, пн
пн1001:00+5сз1298100 0.1 1003133
04:00+4сз2298100 0.8 1004215
07:00+3сз1294100 0.0 1007362
10:00+4сз2286100 0.0 1008643
13:00+4зсз2485100 0.1 1009756
16:00+6сз1371100 0.1 1009696
19:00+6сз2472100 0.0 1010225
22:00+4зсз118194 0.0 101224
11 мая, вт
вт1101:00+3сз1185100 0.0 101319
04:00+2ссз1188100 0.0 101422
07:00+3с118599 0.0 1015304
10:00+6с1178100 0.1 1016708
13:00+8сз1266100 0.4 10161127
16:00+10зсз224983 0.6 10151557
19:00+8зсз235986 0.1 1017683
22:00+5ю007498 0.1 101810
12 мая, ср
ср1201:00+4ююв118116 0.0 101915
04:00+1юв11941 0.0 102013
07:00+4вюв12795 0.0 1019151
10:00+11ююв244414 0.0 10161240
13:00+15ююз2432100 0.0 10131772
16:00+15юз5735100 0.0 10111877
19:00+10зюз5869100 0.0 1011807
22:00+7ю2595100 2.3 1012305
13 мая, чт
чт1301:00+7ю3988100 1.8 1011988
04:00+7ююв2689100 1.9 1010250
07:00+8ююз3986100 0.1 1011855
10:00+11ююз586982 0.1 1009877
13:00+16юз7133932 0.2 10073034
16:00+18з713347 0.2 10073453
19:00+15з51145100 0.0 10082430
22:00+7ююз11891 2.1 101112
14 мая, пт
пт1401:00+6ююз2187100 0.0 101211
04:00+5ююз229096 0.0 101224
07:00+8ююв1285100 0.0 101281
10:00+16ююз25545 0.0 1011903
13:00+20зюз45305 0.0 10092796
16:00+21юз352578 0.0 10073064
19:00+16ююз2552100 0.0 1008141
22:00+12вюв2263100 0.0 100716